Location: Oshawa
(43.9000°N, 78.8670°W)
Time: 01:45:03
(UTC-04:00)

Cosmos 1500 - Visible Passes

Search period start: 02 July 2016 00:00
Search period end: 12 July 2016 00:00
Orbit: 505 x 526 km, 82.5° (Epoch: 30 June)

Date Brightness Start Highest point End Pass type
(mag) Time Alt. Az. Time Alt. Az. Time Alt. Az.
02 Jul 3.6 04:42:07 10° S 04:45:57 65° E 04:49:50 10° NNE visible
03 Jul 4.0 04:27:12 10° S 04:30:59 53° E 04:34:48 10° NNE visible
04 Jul 4.3 04:12:21 10° SSE 04:16:01 43° E 04:19:45 10° NNE visible
05 Jul 4.6 03:57:32 10° SSE 04:01:05 35° E 04:04:39 10° NNE visible
06 Jul 4.9 03:42:45 10° SSE 03:46:08 29° E 03:49:32 10° NNE visible
07 Jul 5.2 03:28:09 11° SE 03:31:12 24° E 03:34:23 10° NE visible
07 Jul 4.6 05:03:39 10° SW 05:06:50 24° WNW 05:10:02 10° NNW visible
08 Jul 5.4 03:13:35 11° SE 03:16:16 20° E 03:19:10 10° NE visible
08 Jul 4.4 04:48:37 11° SW 04:51:48 28° WNW 04:55:13 10° NNW visible
09 Jul 5.7 02:59:00 11° SE 03:01:21 17° E 03:03:54 10° NE visible
09 Jul 4.1 04:34:01 15° SW 04:36:47 34° WNW 04:40:21 10° N visible
10 Jul 5.8 02:44:23 10° ESE 02:46:26 14° E 02:48:32 10° NE visible
10 Jul 3.8 04:19:24 20° SW 04:21:45 41° WNW 04:25:27 10° N visible
11 Jul 5.9 02:30:05 10° ESE 02:31:31 12° E 02:32:56 10° ENE visible
11 Jul 3.5 04:04:47 25° SW 04:06:44 50° WNW 04:10:32 10° N visible
